User: anonymous
Location: Oshawa
(43.9000°N, 78.8670°W)
Time: 09:46:37
(UTC-04:00)
Language:

Cosmos 1707 Rocket - Orbit

View from above orbital plane
View from above orbital plane
View from above satellite
View from above satellite

Ground track
Ground track

The orbit data is extracted from the following two-line orbital elements,

1 16327U 85113B   14243.76330154  .00000205  00000-0  22237-4 0  4352
2 16327 082.5370 326.0840 0020847 112.5711 005.6309 14.82837652550625
Epoch (UTC): 31 August 2014 18:19:09
Eccentricity: 0.0020847
inclination: 82.5370°
perigee height: 606 km
apogee height: 635 km
right ascension of ascending node: 326.0840°
argument of perigee: 112.5711°
revolutions per day: 14.82837652
mean anomaly at epoch: 5.6309°
orbit number at epoch: 55062

The dashed part of the orbit path shows where the satellite is in the earth's shadow,  

DLR